Retour au catalogue

NOAA 16 DEB

ActifPO
NORAD 41160·DEBRIS·🇺🇸 United States

Lancé Sep 21, 2000 depuis Vandenberg Space Force Base

Loading…

Prochains Passages (prochaines 24 heures)

TLE

FraisSource: Space-Track

Époque: Sep 14, 2026, 02:55 UTC

1 41160U 00055CT  26257.12186682  .00011631  00000-0  27215-2 0  9999
2 41160  98.8360  18.3067 0014789 206.0749 153.9703 14.54707240558358

Suivez NOAA 16 DEB en temps réel avec AllMySat

Download on the App Store